Dewpoint
37 34 32 33 36 36 33 32 33 35 37 38 38 37 38 40 40 39 38 36 33 37 40 41 44 48 52 53 54 55 56 51 48 47 44 43 41 37 34 32 31 31 30 30
36 33 33 34 35 37 36 34 32 34 34 36 37 38 39 39 39 39 39 38 33 39 40 43 47 51 53 54 54 55 56 52 50 47 45 42 40 38 35 31 27 27 27 27
32 31 33 34 34 34 35 35 32 32 34 33 32 31 36 38 40 39 39 38 36 39 40 43 48 49 50 51 51 51 50 48 46 43 41 40 38 38 35 31 28 25 24 26
33 34 32 33 32 34 31 35 35 34 32 28 36 28 32 36 37 38 38 37 37 40 41 43 47 47 48 48 48 48 47 45 44 43 40 37 36 35 36 33 27 23 22 23
33 33 33 31 31 32 31 33 31 33 33 32 30 31 31 35 35 37 37 36 36 40 41 44 46 46 46 45 45 45 45 45 44 43 40 39 36 36 34 29 24 20 20 21
33 35 33 31 31 33 35 33 32 32 32 27 25 30 29 34 35 35 37 34 36 39 41 44 45 44 42 41 40 41 41 40 40 39 37 35 32 29 27 25 25 23 22 22
35 36 36 37 32 33 32 31 24 24 23 20 23 27 27 34 36 34 34 34 37 39 42 44 43 41 39 38 37 37 37 35 34 33 31 28 25 22 21 21 20 18 17 18
29 26 35 36 32 31 32 30 23 15 18 16 31 28 30 35 34 34 35 35 38 40 43 43 42 41 38 36 35 34 32 30 29 27 24 22 22 23 21 18 17 16 15 15
29 28 33 33 34 32 32 30 29 24 27 27 30 33 35 37 31 33 34 36 38 41 43 43 42 40 37 35 33 31 29 27 25 23 21 20 19 19 17 15 15 15 13 11
29 23 31 32 35 35 32 32 28 29 19 18 28 30 29 31 31 34 35 36 40 42 43 42 41 39 37 34 32 29 27 24 22 19 18 17 16 14 13 12 10 10 10 11
32 29 30 34 33 29 34 32 32 27 27 23 22 29 31 29 31 34 37 38 40 42 43 42 41 39 36 33 30 28 25 22 18 17 15 15 14 12 11 10 9 9 10 11
32 34 27 26 31 35 36 32 32 25 22 32 31 27 29 29 33 35 37 38 40 42 43 42 41 38 34 31 29 26 24 21 18 16 15 15 13 11 10 10 10 11 10 11
37 33 27 27 32 35 34 33 36 32 33 26 30 28 31 31 32 36 36 38 40 41 42 42 40 37 34 31 27 25 23 20 18 17 16 14 13 11 11 11 11 12 12 12
39 36 31 27 34 37 33 34 34 35 31 27 29 31 28 29 30 35 37 38 39 41 41 40 39 36 33 29 26 24 21 18 18 17 16 14 12 12 12 13 13 13 13 13
38 33 35 35 34 36 37 34 35 32 34 32 33 32 33 29 29 35 37 38 39 40 40 39 38 36 32 29 26 23 19 18 18 17 16 15 14 13 14 14 13 14 14 14
38 32 33 32 36 37 36 38 36 36 34 35 36 34 30 31 32 36 37 38 38 39 40 39 38 36 32 29 25 21 18 18 18 17 17 16 14 13 14 13 13 12 14 13
37 34 34 34 37 37 36 38 34 34 38 36 35 31 31 32 31 36 37 38 38 39 39 38 37 36 33 29 23 19 17 18 17 16 15 14 13 12 13 11 11 12 11 13
33 33 36 33 36 24 27 34 39 38 37 36 35 32 31 32 34 35 36 38 38 39 39 38 37 36 32 26 21 17 16 16 16 15 13 13 13 11 11 10 10 10 11 13
36 35 34 33 30 28 26 27 31 35 34 32 36 33 34 35 34 35 38 38 39 39 40 38 37 32 27 22 17 15 15 15 14 12 11 10 9 9 9 9 9 9 12 14
37 38 36 30 26 24 27 29 29 30 27 33 32 34 34 34 31 33 38 38 38 38 37 34 30 26 21 17 15 14 13 12 11 11 11 10 10 9 8 9 9 12 14 14
36 35 32 30 32 31 33 31 31 25 25 33 34 34 34 31 33 36 34 32 32 31 28 26 24 20 17 15 14 13 11 10 11 11 10 10 10 9 8 10 13 14 14 14
35 34 34 33 29 24 33 29 26 29 36 36 35 36 36 36 35 34 33 31 29 27 24 22 20 17 15 14 12 10 9 10 11 11 11 10 9 8 12 14 15 15 13 12
33 36 35 34 32 34 35 35 36 35 36 36 36 36 36 35 34 33 32 29 26 24 22 21 19 15 13 11 9 9 9 11 11 9 9 8 9 12 13 14 15 14 13 12
35 36 36 35 34 35 34 36 36 36 36 36 36 36 35 33 33 31 30 27 24 22 20 19 16 13 11 10 10 10 11 11 9 8 7 10 12 16 14 14 14 14 14 14
36 33 32 32 33 34 35 36 36 36 36 36 35 35 34 32 31 30 29 27 24 22 20 17 14 12 11 11 10 11 11 10 8 8 10 12 14 15 14 14 14 16 16 18
31 32 32 33 33 31 32 36 36 36 36 36 35 34 34 33 32 31 29 28 24 22 20 18 16 12 11 11 11 11 12 10 9 10 12 14 16 15 14 14 14 20 20 21
Lifted_Index
7 7 7 7 7 7 6 7 7 6 5 5 5 5 4 3 2 2 2 2 2 2 3 4 4 4 3 3 3 3 3 2 -0 -2 -2 -2 -1 -0 0 1 3 6 9 11
7 7 7 7 7 7 6 6 6 6 5 5 5 5 5 4 3 2 2 2 2 2 3 4 4 3 3 2 2 2 2 1 -1 -2 -2 -2 -1 0 1 3 6 9 11 12
8 8 7 7 7 6 6 6 6 5 5 5 4 4 5 4 3 3 2 2 2 2 3 3 3 2 2 2 1 1 1 -0 -1 -2 -2 -1 -0 1 3 6 9 11 12 12
7 7 7 6 5 5 5 5 4 4 4 4 3 4 4 4 4 3 2 2 2 2 2 3 2 2 2 1 1 1 0 -0 -1 -1 -0 1 2 4 6 9 11 12 12 12
6 6 5 4 4 4 4 4 3 3 3 3 3 3 3 3 4 3 3 2 2 2 2 3 3 2 2 1 1 1 0 0 1 1 3 4 6 8 9 10 11 11 11 11
4 4 4 3 3 3 3 3 3 3 3 3 3 3 3 3 3 3 2 2 1 1 2 3 3 3 2 2 1 1 1 1 3 4 6 7 9 10 10 10 11 11 11 11
3 3 3 3 3 3 3 2 2 1 1 2 3 3 3 3 3 2 2 2 1 1 2 3 3 3 3 3 2 2 3 4 6 7 8 9 10 10 10 10 10 10 10 10
1 1 2 2 2 2 2 2 2 1 1 1 2 2 3 3 2 2 2 2 1 1 2 3 3 4 4 4 4 4 5 7 8 9 9 10 11 11 11 10 10 10 10 10
1 1 1 1 1 1 1 2 2 1 1 1 1 1 2 2 2 1 1 1 1 2 2 3 3 4 5 6 6 7 8 8 9 9 10 10 11 11 11 10 10 10 10 10
1 1 1 1 1 1 1 1 1 1 1 0 0 1 1 2 2 1 1 1 1 2 2 3 4 5 6 7 7 8 8 9 9 10 10 10 10 11 10 10 10 10 11 11
2 2 1 2 2 2 1 1 1 1 1 0 0 1 1 1 1 0 0 0 1 2 2 3 4 5 6 7 7 8 8 9 9 10 10 10 10 10 10 10 10 10 11 13
2 2 1 1 2 2 2 1 1 1 1 1 1 1 1 1 0 0 0 1 1 2 3 4 4 5 6 7 7 8 8 8 9 9 10 10 10 10 10 10 10 11 13 14
2 2 1 1 1 2 2 1 1 1 1 2 1 1 1 0 1 1 1 2 2 3 3 4 4 5 6 7 7 8 8 8 9 9 9 9 10 9 9 10 11 12 14 16
3 3 2 1 1 1 2 2 2 2 2 2 2 1 0 1 1 2 2 3 3 3 4 4 5 5 6 7 7 7 8 8 9 9 9 9 9 10 10 10 11 13 15 17
3 3 2 1 1 1 1 2 2 2 2 2 2 1 1 1 2 2 2 3 3 3 3 4 5 5 6 6 7 7 8 8 9 9 9 9 10 10 10 11 12 14 17 18
3 3 2 1 1 1 1 1 2 2 2 2 1 1 2 2 2 2 2 3 3 3 3 4 4 5 6 6 6 7 7 8 9 9 9 10 10 10 11 11 13 15 17 18
3 3 2 1 1 1 1 1 1 1 1 1 1 2 2 2 1 1 2 2 3 3 3 4 4 5 5 5 6 7 8 8 9 9 9 10 10 10 11 12 14 16 17 17
3 3 2 1 1 1 1 1 1 1 1 1 1 1 1 1 1 1 2 2 2 3 3 4 4 4 5 5 6 7 8 8 9 9 10 10 10 11 12 14 16 17 17 17
3 3 2 1 1 1 1 1 1 1 1 1 1 1 1 1 1 1 2 2 3 3 4 4 4 4 5 5 6 7 8 8 9 9 10 10 11 12 13 16 17 17 17 17
3 3 2 2 1 1 1 2 2 2 2 2 2 2 1 1 1 1 2 3 3 4 4 4 4 4 5 6 7 7 8 8 9 10 10 11 12 14 16 17 17 17 17 17
2 2 2 2 1 1 2 2 2 2 2 2 2 2 2 2 2 2 2 3 4 4 4 4 4 5 5 6 7 7 8 9 10 11 11 13 14 16 17 17 17 17 17 17
2 2 2 2 2 2 2 2 2 2 2 2 2 2 2 2 2 2 3 3 4 4 4 4 5 5 6 7 8 8 9 10 11 12 13 15 17 18 18 17 17 17 17 17
1 2 2 2 2 2 2 2 2 2 2 3 3 2 2 2 2 2 3 3 4 5 5 6 6 7 8 8 9 10 10 11 12 13 15 17 18 18 17 17 17 17 17 18
1 1 1 1 2 2 1 2 2 2 3 3 3 3 2 2 2 3 3 4 5 6 7 8 9 9 10 10 11 11 12 12 13 15 16 18 18 17 17 17 17 17 18 19
1 1 1 1 1 1 1 1 2 2 3 3 3 3 3 3 3 4 4 5 7 8 10 11 11 11 11 12 12 12 13 14 15 16 18 18 17 17 17 17 17 19 20 21
1 1 1 1 1 1 1 1 2 2 3 3 3 4 4 4 4 5 5 7 8 10 11 12 12 12 12 12 12 12 14 15 16 17 18 18 17 17 17 17 18 20 21 22